Airfield :
LOGIN :

Register | Disclaimer

   EN    FR    IT 

 










Legend :    VFR   Marginal VFR   IFR   Intensive IFR   Very Intensive IFR
Visi :
Ceiling :
>= 8 km
>= 3000ft
5 to 8 km
1000 to 3000 ft
1500m to 5 km
500 to 1000 ft
800 to 1500m
200 to 500 ft
< 800m
< 200 ft
Symbols :   Thunderstorms  Fog  Heavy snow  Heavy precipitations  Wind > 20 kt
SIGMETs :     Misc.  Thunderstorms  Icing  Turbulence  Mountain Waves  Volcanic Ashes







- Airport Elevation : 913 ft
- Download approach charts


LFSX - Luxeuil

CURRENT METAR :
  • 301630Z AUTO 13009KT 9999 ////// 19/M00 Q1004

EXPIRED METARs :
  • 301600Z AUTO 13008KT 9999 ////// 19/00 Q1004
  • 301530Z AUTO 13009KT 9999 ////// 19/01 Q1004
  • 301500Z AUTO 14010KT 9999 ////// 20/01 Q1005
  • 301430Z AUTO 13010KT 080V180 9999 ////// 20/02 Q1005
  • 301400Z AUTO 15008KT 120V190 9999 ////// 21/01 Q1006

Expired Forecast.
No reported NOTAMs for that airfield.



MET'MAP, your aeronautical weather chart ! - Copyright ORBIFLY December 2007 - Disclaimer

ORBIFLY MET'MAP TEAM :

Programming & Development : Alexandra Zaïnal
Concept & Development : Baudouin d'Aumeries
Co-Development & Prog : Marc-Olivier Méhu
Technical & hardware support : Manuel Goepfert

Contact : metmap@orbifly.com




SOURCES & CREDITS :

   NOAA